Terminal Aerodrome Forecast
Issued by NWS Portland, OR

Home | Current Version | Previous Version | Text Only | Print | Product List | Glossary On
Versions: 1 2 3 4 5 6 7 8 9 10 11 12 13 14 15 16 17 18 19 20 21 22 23 24 25 26 27 28 29 30 31 32 33 34 35 36 37 38 39 40 41 42 43 44 45 46 47 48 49 50
000
FTUS46 KPQR 260302 AAA
TAFPDX
TAF AMD
KPDX 260302Z 2603/2624 VRB04KT P6SM VCSH SCT025 OVC045
     FM260800 11003KT P6SM VCSH OVC025
     FM261200 VRB03KT P6SM VCSH OVC012
     FM262200 VRB03KT P6SM BKN025=

USA.gov is the U.S. government's official web portal to all federal, state and local government web resources and services.